Regional Weather Roundup
Issued by NWS

Home | Current Version | Previous Version | Graphics & Text | Print | Product List | Glossary On
Versions: 1 2 3 4 5 6 7 8 9 10 11 12 13 14 15 16 17 18 19 20 21 22 23 24 25 26 27 28 29 30 31 32 33 34 35 36 37 38 39 40 41 42 43 44 45 46 47 48 49 50
000
ASUS43 KFSD 290702
RWRSD

WEATHER ROUNDUP FOR SOUTH DAKOTA
NATIONAL WEATHER SERVICE SIOUX FALLS SD
200 AM CDT WED MAR 29 2017

NOTE: "FAIR" INDICATES FEW OR NO CLOUDS BELOW 12,000 FEET WITH NO
SIGNIFICANT WEATHER AND/OR OBSTRUCTIONS TO VISIBILITY.


SDZ001>005-009-010-012>017-290800-
NORTHWEST AND NORTH CENTRAL SOUTH DAKOTA

CITY           SKY/WX    TMP DP  RH WIND       PRES   REMARKS
BUFFALO          N/A     41  41 100 S6        30.04F
FAITH            N/A     42  42 100 MISG      30.12F
MOBRIDGE       CLOUDY    46  41  82 N7        30.12F
$$

SDZ012>016-024>037-041>051-057-063-072>074-290800-
SOUTHWEST AND SOUTH CENTRAL SOUTH DAKOTA

CITY           SKY/WX    TMP DP  RH WIND       PRES   REMARKS
RAPID CTY ARPT CLOUDY    42  40  92 SE5       30.11S
PIERRE         CLOUDY    44  42  93 N3        30.14S
CUSTER         CLOUDY    35  33  92 SW3       30.09S
ELLSWORTH AFB  CLOUDY    42  42 100 S8        30.10
PHILIP         CLOUDY    43  42  97 CALM      30.14S
PINE RIDGE     CLOUDY    42  41  96 CALM      30.13S
SPEARFISH      MOCLDY    34  32  93 SW3       30.12S
WINNER         LGT RAIN  44  42  93 N3        30.14S
$$

SDZ004>011-016>023-039-040-290800-
NORTHEAST SOUTH DAKOTA

CITY           SKY/WX    TMP DP  RH WIND       PRES   REMARKS
ABERDEEN       CLOUDY    40  33  76 E8        30.15F
WATERTOWN      CLOUDY    45  37  73 E6        30.16R
BROOKINGS      CLOUDY    43  35  73 NE3       30.15R
SISSETON         N/A     38  35  89 NW6       30.17S
$$

SDZ017-020-022-023-036>040-048>070-290800-
SOUTHEAST SOUTH DAKOTA

CITY           SKY/WX    TMP DP  RH WIND       PRES   REMARKS
SIOUX FALLS    PTCLDY    42  36  79 E3        30.15R
HURON          CLOUDY    43  39  86 E5        30.15R
CHAMBERLAIN    CLOUDY    46  43  88 NW5       30.15S
MITCHELL       CLOUDY    44  38  79 E3        30.14S
YANKTON        MOCLDY    46  39  76 CALM      30.12S
$$

ABBREVIATIONS USED IN REMARKS
   TC - TEMPERATURE IN CELSIUS
  WCI - WIND CHILL INDEX
   HX - HEAT INDEX
  VSB - VISIBILITY




USA.gov is the U.S. government's official web portal to all federal, state and local government web resources and services.